SCP
0 0 0 0 0 0 0 0 0 0 0 0 0 0 1 0 0 0 0 0 0 0 0 0 0 0 0 0 0 0 0 0 0 0 0 0 0 0
0 0 0 0 0 0 0 0 0 0 0 0 0 0 0 0 0 0 0 0 0 0 0 0 0 0 0 0 0 0 0 0 0 0 0 0 0 0
0 0 0 0 0 0 0 0 0 0 0 0 0 0 0 0 0 0 0 0 0 0 0 0 0 0 0 0 0 0 0 0 0 0 0 0 0 0
0 0 0 0 0 0 0 0 0 0 0 0 0 0 0 0 0 0 0 0 0 0 0 0 0 0 0 0 0 0 0 0 0 0 0 0 0 0
0 0 0 0 0 0 0 0 0 0 0 0 0 0 0 0 0 0 0 0 0 0 0 0 0 0 0 0 0 0 0 0 0 0 0 0 0 0
0 0 0 0 0 0 0 0 0 0 0 0 0 0 0 0 0 0 0 0 0 0 0 0 0 0 0 0 0 0 0 0 0 0 0 0 0 0
0 0 0 0 0 0 0 0 0 0 0 0 0 0 0 0 0 0 0 0 0 0 0 0 0 0 0 0 0 0 0 0 0 0 0 0 0 0
0 0 0 0 0 0 0 0 0 0 0 0 0 0 0 0 0 0 0 0 0 0 0 0 0 0 0 0 0 0 0 0 0 0 0 0 0 0
0 0 0 0 0 0 0 0 0 0 0 0 0 0 0 0 0 0 0 0 0 0 0 0 0 0 0 0 0 0 0 0 0 0 0 0 0 0
0 0 0 0 0 0 0 0 0 0 0 0 0 0 0 0 0 0 0 0 0 0 0 0 0 0 0 0 0 0 0 0 0 0 0 0 0 0
0 0 0 0 0 0 0 0 0 0 0 0 0 0 0 0 0 0 0 0 0 0 0 0 0 0 0 0 0 0 0 0 0 0 0 0 0 0
0 0 0 0 0 0 0 0 0 0 0 0 0 0 0 0 0 0 0 0 0 0 0 0 0 0 0 0 0 0 0 0 0 0 0 0 0 0
0 0 0 0 0 0 0 0 0 0 0 0 0 0 0 0 0 0 0 0 0 0 0 0 0 0 0 0 0 0 0 0 0 0 0 0 0 0
0 0 0 0 0 0 0 0 0 0 0 0 0 0 0 0 0 0 0 0 0 0 0 0 0 0 0 0 0 0 0 0 0 0 0 0 0 0
0 0 0 0 0 0 0 0 0 0 0 0 0 0 0 0 0 0 0 0 0 0 0 0 0 0 0 0 0 0 0 0 0 0 0 0 0 0
0 0 0 0 0 0 0 0 0 0 0 0 0 0 0 0 0 0 0 0 0 0 0 0 0 0 0 0 0 0 0 0 0 0 0 0 0 0
0 0 0 0 0 0 0 0 0 0 0 0 0 0 0 0 0 0 0 0 0 0 0 0 0 0 0 0 0 0 0 0 0 0 0 0 0 0
0 0 0 0 0 0 0 0 0 0 0 0 0 0 0 0 0 0 0 0 0 0 0 0 0 0 0 0 0 0 0 0 0 0 0 0 0 0
0 0 0 0 0 0 0 0 0 0 0 0 0 0 0 0 0 0 0 0 0 0 0 0 0 0 0 0 0 0 0 0 0 0 0 0 0 0
0 0 0 0 0 0 0 0 0 0 0 0 0 0 0 0 0 0 0 0 0 0 0 0 0 0 0 0 0 0 0 0 0 0 0 0 0 0
0 0 0 0 0 0 0 0 0 0 0 0 0 0 0 0 0 0 0 0 0 0 0 0 0 0 0 0 0 0 0 0 0 0 0 0 0 0
0 0 0 0 0 0 0 0 0 0 0 0 0 0 0 0 0 0 0 0 0 0 0 0 0 0 0 0 0 0 0 0 0 0 0 0 0 0
0 0 0 0 0 0 0 0 0 0 0 0 0 0 0 0 0 0 0 0 0 0 0 0 0 0 0 0 0 0 0 0 0 0 0 0 0 0
Wind_Speed
6 6 5 4 4 5 4 4 4 5 5 5 2 1 2 2 4 3 3 7 10 12 13 14 16 17 18 19 20 19 18 18 19 19 19 19 20 20
5 6 6 5 5 4 4 4 4 5 5 5 3 2 1 2 4 3 3 5 9 12 13 13 14 16 17 18 19 19 18 17 17 18 18 18 18 19
7 7 6 6 5 5 4 4 4 4 6 5 4 3 2 3 2 2 3 3 4 10 12 13 13 14 16 17 18 18 18 18 17 17 17 17 17 17
7 7 7 7 6 5 5 6 5 5 5 7 5 4 5 4 4 3 3 3 3 7 11 12 13 13 14 15 16 16 17 17 17 16 16 17 17 17
7 7 7 7 7 5 6 6 5 7 5 5 5 4 4 4 4 3 4 2 3 4 7 9 11 12 13 13 14 15 15 16 16 16 16 16 16 16
6 7 7 7 7 6 6 6 6 6 5 5 5 5 4 4 3 3 3 3 3 3 3 4 6 8 10 12 13 14 14 15 15 15 15 15 15 15
7 7 8 9 10 8 8 5 5 4 4 4 5 5 5 4 4 3 3 2 2 2 3 3 4 4 5 8 11 12 13 13 13 13 14 14 14 14
8 7 8 10 11 13 14 12 10 7 6 5 5 5 5 4 3 3 3 3 3 2 3 3 3 4 3 4 8 11 11 12 12 12 13 13 13 13
8 7 9 11 9 6 8 12 13 15 14 9 8 7 6 5 4 3 3 3 3 2 2 2 3 3 2 3 8 10 11 11 11 12 12 13 12 12
9 9 9 9 10 8 7 7 7 8 10 11 10 9 9 6 5 5 4 2 1 2 2 2 2 2 3 2 5 8 10 11 11 11 11 11 11 11
9 9 8 8 9 8 6 7 8 7 10 13 14 13 13 10 6 3 3 3 3 3 3 3 2 2 2 2 3 6 8 10 10 11 11 11 12 11
7 7 8 8 8 7 6 6 8 7 7 7 7 9 10 10 11 7 5 5 3 3 4 4 3 3 3 2 3 3 4 7 10 10 12 12 12 7
7 6 4 3 5 6 7 7 8 7 6 6 5 6 6 6 7 8 7 6 5 4 5 5 4 3 3 3 3 4 4 4 5 6 9 11 10 7
7 7 4 3 5 7 7 9 9 7 6 6 6 6 6 6 7 7 8 8 6 5 6 6 4 5 5 4 3 4 4 5 5 5 6 7 6 6
7 10 10 11 10 9 12 13 9 7 7 7 7 7 6 6 6 6 6 6 6 6 7 6 5 5 5 4 5 5 4 4 5 6 6 6 5 6
8 9 12 13 12 11 9 8 8 8 7 7 6 6 5 5 5 5 5 5 5 4 5 6 6 6 4 4 6 6 5 6 6 6 6 5 5 5
5 6 8 7 6 6 6 6 7 7 8 7 6 5 5 4 5 5 5 6 6 6 6 4 4 4 4 4 6 7 6 6 7 7 7 6 5 5
4 7 8 7 7 6 6 6 6 7 7 6 6 6 5 5 5 4 5 6 6 6 6 6 6 4 3 1 3 7 6 6 6 7 6 6 6 4
6 8 8 8 7 6 5 6 6 6 6 6 6 6 6 5 5 5 6 6 6 6 6 7 7 6 7 5 3 3 6 7 7 6 5 4 5 6
7 8 8 7 6 6 5 5 5 4 5 5 6 6 6 6 6 6 6 7 7 6 6 7 7 7 6 6 5 4 5 8 7 7 5 4 5 7
7 6 6 6 5 5 5 4 4 4 5 5 5 6 5 6 6 6 6 8 7 6 8 8 8 8 4 5 6 4 4 4 6 6 7 7 6 5
6 6 5 5 4 4 4 4 4 4 4 4 4 5 5 5 6 7 7 7 7 6 6 6 7 6 4 6 7 7 6 5 7 10 8 5 5 7
5 5 5 5 4 4 4 4 4 4 4 4 4 5 5 5 5 5 7 7 6 7 7 6 6 6 5 5 6 7 9 8 5 5 4 8 4 5
Wind_Direction
272 271 259 262 268 269 264 254 256 270 275 276 261 206 189 182 164 205 217 212 212 214 217 218 218 215 211 207 207 207 207 208 209 211 211 211 212 215
263 263 266 262 265 266 260 253 243 248 264 280 281 255 231 243 177 203 218 217 215 213 215 216 217 215 211 208 206 205 205 206 207 208 209 209 210 213
276 271 264 261 265 274 275 267 254 245 253 265 272 274 238 247 217 216 225 223 220 215 212 214 215 216 214 210 207 205 204 205 206 207 209 210 210 212
279 277 276 273 263 258 264 270 267 260 254 262 267 269 256 241 230 225 238 240 228 211 205 208 210 212 212 208 205 203 202 204 205 207 209 210 211 212
280 279 277 275 273 261 259 261 264 265 256 255 261 253 253 241 234 232 234 230 235 207 195 198 203 206 207 205 203 203 202 203 204 205 207 208 209 210
281 279 276 272 271 270 266 256 258 264 269 265 263 259 250 237 219 221 231 221 227 215 190 181 183 194 202 202 201 201 201 202 202 203 205 206 206 207
288 282 276 274 269 264 266 262 267 269 270 268 266 265 255 236 222 213 224 221 227 210 177 174 169 182 193 196 195 193 193 194 195 197 198 200 201 202
285 283 282 272 261 249 246 247 245 250 255 259 264 263 268 266 252 232 214 213 228 201 187 190 174 179 181 181 183 181 184 188 191 191 191 193 193 195
277 278 281 282 291 277 255 245 243 242 238 243 254 257 264 268 265 248 238 229 228 189 170 200 172 165 152 157 166 171 175 178 180 181 182 183 184 185
268 266 265 270 277 281 281 272 260 251 239 232 237 245 251 255 252 241 229 225 229 195 174 187 165 142 122 121 153 162 166 168 169 171 171 171 173 174
269 269 267 266 267 268 265 266 266 264 260 246 229 231 234 234 230 226 208 202 223 212 187 172 155 135 124 122 129 148 157 159 161 162 162 160 159 155
277 272 268 265 267 254 249 260 266 268 276 281 254 240 234 228 218 213 212 207 208 209 187 167 161 149 140 135 141 143 143 148 154 158 158 156 157 152
287 291 299 305 268 256 250 255 261 274 283 275 269 255 237 227 217 212 209 207 208 216 181 167 163 163 146 143 147 154 155 150 148 149 155 159 166 165
278 285 292 293 282 270 257 254 260 266 262 259 253 248 239 230 221 213 208 207 205 201 184 175 167 168 153 148 149 151 153 156 153 148 150 157 167 170
268 282 289 278 270 260 249 248 249 244 244 245 247 243 234 232 221 212 209 201 198 196 185 187 176 163 164 157 150 153 151 157 157 152 152 161 165 159
262 279 277 265 254 256 261 242 229 235 237 239 242 245 242 229 218 206 200 189 189 190 183 182 181 171 171 161 154 159 158 159 163 157 152 155 161 167
313 285 277 274 260 246 242 236 228 226 231 237 240 241 240 232 219 206 194 186 190 188 181 176 171 164 161 161 161 163 157 154 160 158 155 155 163 170
277 273 275 274 269 259 251 245 234 230 230 228 228 230 227 225 221 208 193 191 193 189 183 173 161 150 141 125 159 161 159 156 156 160 159 155 160 159
248 261 268 269 267 263 253 246 240 230 223 223 224 225 223 219 213 207 198 193 195 190 182 173 172 171 172 168 162 170 160 156 155 158 164 152 151 152
238 254 262 265 265 266 261 251 244 232 222 220 220 220 217 212 209 205 200 195 193 187 179 177 181 184 181 167 150 159 165 158 158 160 154 117 95 95
262 259 261 264 264 261 259 252 242 231 224 218 216 216 215 210 209 205 199 193 191 184 183 184 186 176 150 125 128 131 134 126 143 152 152 139 136 139
267 270 270 270 265 259 259 249 236 227 225 220 215 214 215 208 206 205 195 189 190 187 184 176 165 161 161 165 157 148 141 122 93 88 78 100 151 164
264 266 264 266 266 261 255 248 239 227 219 216 212 211 213 210 206 202 191 186 182 182 175 167 164 168 171 166 155 149 147 144 136 118 65 26 60 116